Tabellarische Ansicht des 26.5.2018


Die einzelnen Werte des Tages

Uhrzeit Temperatur Luftdruck Luftfeuchte Wind Hi-Wind Taupunkt THW Index Wind Chill Heat Index Solar- strahlung Regen

00:00

19.5 C

1016.8 hpa

62 %

8.0 km/h aus 114

17.7 km/h aus NE

12.0 C

19.3 C

19.5 C

19.3 C

0 W/m

0.00 mm

00:05

19.5 C

1016.8 hpa

62 %

9.7 km/h aus 112

22.5 km/h aus NE

12.0 C

19.3 C

19.5 C

19.3 C

0 W/m

0.00 mm

00:10

19.5 C

1016.8 hpa

60 %

9.7 km/h aus 117

17.7 km/h aus NE

11.5 C

19.2 C

19.5 C

19.2 C

0 W/m

0.00 mm

00:15

19.4 C

1016.9 hpa

60 %

8.0 km/h aus 115

16.1 km/h aus ENE

11.5 C

19.2 C

19.4 C

19.2 C

0 W/m

0.00 mm

00:20

19.4 C

1016.9 hpa

59 %

6.4 km/h aus 114

11.3 km/h aus ENE

11.2 C

19.1 C

19.4 C

19.1 C

0 W/m

0.00 mm

00:25

19.4 C

1016.9 hpa

59 %

8.0 km/h aus 112

16.1 km/h aus NNE

11.2 C

19.1 C

19.4 C

19.1 C

0 W/m

0.00 mm

00:30

19.4 C

1017.1 hpa

59 %

6.4 km/h aus 117

14.5 km/h aus E

11.2 C

19.1 C

19.4 C

19.1 C

0 W/m

0.00 mm

00:35

19.3 C

1017.1 hpa

59 %

4.8 km/h aus 116

9.7 km/h aus NE

11.1 C

19.0 C

19.3 C

19.0 C

0 W/m

0.00 mm

00:40

19.3 C

1017.1 hpa

59 %

3.2 km/h aus 116

9.7 km/h aus ENE

11.1 C

18.9 C

19.3 C

18.9 C

0 W/m

0.00 mm

00:45

19.2 C

1017.1 hpa

59 %

4.8 km/h aus 115

8.0 km/h aus NE

11.0 C

18.8 C

19.2 C

18.8 C

0 W/m

0.00 mm

00:50

19.1 C

1017.1 hpa

59 %

4.8 km/h aus 115

11.3 km/h aus NE

10.9 C

18.7 C

19.1 C

18.7 C

0 W/m

0.00 mm

00:55

19.0 C

1017.1 hpa

59 %

3.2 km/h aus 117

8.0 km/h aus NNE

10.8 C

18.6 C

19.0 C

18.6 C

0 W/m

0.00 mm

01:00

18.9 C

1017.2 hpa

60 %

3.2 km/h aus 116

8.0 km/h aus NE

11.0 C

18.5 C

18.9 C

18.5 C

0 W/m

0.00 mm

01:05

18.8 C

1017.2 hpa

60 %

3.2 km/h aus 116

8.0 km/h aus NE

10.9 C

18.4 C

18.8 C

18.4 C

0 W/m

0.00 mm

01:10

18.7 C

1017.2 hpa

60 %

4.8 km/h aus 115

11.3 km/h aus ENE

10.7 C

18.3 C

18.7 C

18.3 C

0 W/m

0.00 mm

01:15

18.5 C

1017.2 hpa

60 %

4.8 km/h aus 114

11.3 km/h aus E

10.6 C

18.1 C

18.5 C

18.1 C

0 W/m

0.00 mm

01:20

18.3 C

1017.2 hpa

60 %

6.4 km/h aus 116

17.7 km/h aus NE

10.4 C

17.9 C

18.3 C

17.9 C

0 W/m

0.00 mm

01:25

18.2 C

1017.2 hpa

60 %

8.0 km/h aus 115

17.7 km/h aus NE

10.3 C

17.8 C

18.2 C

17.8 C

0 W/m

0.00 mm

01:30

18.2 C

1017.1 hpa

60 %

6.4 km/h aus 115

14.5 km/h aus ENE

10.3 C

17.7 C

18.2 C

17.7 C

0 W/m

0.00 mm

01:35

18.1 C

1017.1 hpa

60 %

8.0 km/h aus 115

12.9 km/h aus NE

10.2 C

17.6 C

18.1 C

17.6 C

0 W/m

0.00 mm

01:40

17.9 C

1017.1 hpa

60 %

6.4 km/h aus 116

11.3 km/h aus NNE

10.1 C

17.4 C

17.9 C

17.4 C

0 W/m

0.00 mm

01:45

17.8 C

1017.1 hpa

60 %

8.0 km/h aus 117

14.5 km/h aus NE

10.0 C

17.3 C

17.8 C

17.3 C

0 W/m

0.00 mm

01:50

17.8 C

1017.1 hpa

60 %

6.4 km/h aus 116

11.3 km/h aus NNE

9.9 C

17.3 C

17.8 C

17.3 C

0 W/m

0.00 mm

01:55

17.7 C

1017.1 hpa

61 %

4.8 km/h aus 112

11.3 km/h aus NE

10.0 C

17.2 C

17.7 C

17.2 C

0 W/m

0.00 mm

02:00

17.6 C

1017.1 hpa

61 %

3.2 km/h aus 113

8.0 km/h aus NNE

10.0 C

17.1 C

17.6 C

17.1 C

0 W/m

0.00 mm

02:05

17.6 C

1017.1 hpa

61 %

3.2 km/h aus 114

9.7 km/h aus NE

9.9 C

17.1 C

17.6 C

17.1 C

0 W/m

0.00 mm

02:10

17.4 C

1017.1 hpa

61 %

3.2 km/h aus 117

8.0 km/h aus NNE

9.8 C

16.9 C

17.4 C

16.9 C

0 W/m

0.00 mm

02:15

17.3 C

1017.0 hpa

61 %

3.2 km/h aus 117

8.0 km/h aus NNE

9.7 C

16.8 C

17.3 C

16.8 C

0 W/m

0.00 mm

02:20

17.2 C

1017.0 hpa

62 %

3.2 km/h aus 113

6.4 km/h aus NNE

9.8 C

16.7 C

17.2 C

16.7 C

0 W/m

0.00 mm

02:25

17.1 C

1017.0 hpa

62 %

3.2 km/h aus 117

9.7 km/h aus NNE

9.8 C

16.6 C

17.1 C

16.6 C

0 W/m

0.00 mm

02:30

17.0 C

1017.1 hpa

62 %

1.6 km/h aus 117

4.8 km/h aus NNE

9.7 C

16.5 C

17.0 C

16.5 C

0 W/m

0.00 mm

02:35

16.9 C

1017.1 hpa

62 %

1.6 km/h aus 117

4.8 km/h aus NNE

9.6 C

16.3 C

16.9 C

16.3 C

0 W/m

0.00 mm

02:40

16.8 C

1017.1 hpa

63 %

3.2 km/h aus 115

6.4 km/h aus N

9.7 C

16.3 C

16.8 C

16.3 C

0 W/m

0.00 mm

02:45

16.7 C

1017.2 hpa

64 %

3.2 km/h aus 115

6.4 km/h aus N

9.8 C

16.2 C

16.7 C

16.2 C

0 W/m

0.00 mm

02:50

16.6 C

1017.2 hpa

64 %

1.6 km/h aus 117

6.4 km/h aus N

9.7 C

16.1 C

16.6 C

16.1 C

0 W/m

0.00 mm

02:55

16.4 C

1017.2 hpa

64 %

3.2 km/h aus 116

6.4 km/h aus NNW

9.6 C

16.0 C

16.4 C

16.0 C

0 W/m

0.00 mm

03:00

16.3 C

1017.3 hpa

65 %

3.2 km/h aus 117

6.4 km/h aus N

9.7 C

15.9 C

16.3 C

15.9 C

0 W/m

0.00 mm

03:05

16.2 C

1017.3 hpa

65 %

3.2 km/h aus 116

6.4 km/h aus N

9.6 C

15.8 C

16.2 C

15.8 C

0 W/m

0.00 mm

03:10

16.1 C

1017.3 hpa

65 %

3.2 km/h aus 115

6.4 km/h aus N

9.5 C

15.6 C

16.1 C

15.6 C

0 W/m

0.00 mm

03:15

15.9 C

1017.3 hpa

66 %

1.6 km/h aus 117

4.8 km/h aus NNE

9.6 C

15.5 C

15.9 C

15.5 C

0 W/m

0.00 mm

03:20

15.8 C

1017.3 hpa

65 %

1.6 km/h aus 116

4.8 km/h aus N

9.3 C

15.3 C

15.8 C

15.3 C

0 W/m

0.00 mm

03:25

15.7 C

1017.3 hpa

65 %

0.0 km/h aus 116

1.6 km/h aus NNE

9.2 C

15.2 C

15.7 C

15.2 C

0 W/m

0.00 mm

03:30

15.6 C

1017.3 hpa

65 %

0.0 km/h aus 114

0.0 km/h aus ---

9.0 C

15.1 C

15.6 C

15.1 C

0 W/m

0.00 mm

03:35

15.4 C

1017.3 hpa

66 %

0.0 km/h aus 115

0.0 km/h aus ---

9.1 C

14.9 C

15.4 C

14.9 C

0 W/m

0.00 mm

03:40

15.3 C

1017.3 hpa

65 %

0.0 km/h aus 116

0.0 km/h aus ---

8.8 C

14.8 C

15.3 C

14.8 C

0 W/m

0.00 mm

03:45

15.1 C

1017.3 hpa

66 %

0.0 km/h aus 116

0.0 km/h aus ---

8.8 C

14.6 C

15.1 C

14.6 C

0 W/m

0.00 mm

03:50

14.9 C

1017.3 hpa

67 %

0.0 km/h aus 117

1.6 km/h aus NNE

8.9 C

14.4 C

14.9 C

14.4 C

0 W/m

0.00 mm

03:55

14.8 C

1017.3 hpa

68 %

0.0 km/h aus 116

1.6 km/h aus NNE

8.9 C

14.3 C

14.8 C

14.3 C

0 W/m

0.00 mm

04:00

14.6 C

1017.3 hpa

68 %

0.0 km/h aus 114

0.0 km/h aus ---

8.7 C

14.1 C

14.6 C

14.1 C

0 W/m

0.00 mm

04:05

14.3 C

1017.3 hpa

68 %

0.0 km/h aus 117

0.0 km/h aus ---

8.5 C

13.8 C

14.3 C

13.8 C

0 W/m

0.00 mm

04:10

14.2 C

1017.3 hpa

70 %

0.0 km/h aus 117

0.0 km/h aus ---

8.8 C

13.7 C

14.2 C

13.7 C

0 W/m

0.00 mm

04:15

14.0 C

1017.3 hpa

70 %

0.0 km/h aus 117

1.6 km/h aus NE

8.6 C

13.6 C

14.0 C

13.6 C

0 W/m

0.00 mm

04:20

13.8 C

1017.3 hpa

70 %

0.0 km/h aus 116

0.0 km/h aus ---

8.5 C

13.4 C

13.8 C

13.4 C

0 W/m

0.00 mm

04:25

13.6 C

1017.3 hpa

71 %

0.0 km/h aus 114

0.0 km/h aus ---

8.4 C

13.2 C

13.6 C

13.2 C

0 W/m

0.00 mm

04:30

13.5 C

1017.2 hpa

71 %

0.0 km/h aus 116

0.0 km/h aus ---

8.3 C

13.1 C

13.5 C

13.1 C

0 W/m

0.00 mm

04:35

13.3 C

1017.2 hpa

71 %

0.0 km/h aus 117

0.0 km/h aus ---

8.2 C

12.9 C

13.3 C

12.9 C

0 W/m

0.00 mm

04:40

13.2 C

1017.2 hpa

72 %

0.0 km/h aus 116

0.0 km/h aus ---

8.2 C

12.8 C

13.2 C

12.8 C

0 W/m

0.00 mm

04:45

13.0 C

1017.3 hpa

72 %

0.0 km/h aus 116

0.0 km/h aus ---

8.1 C

12.6 C

13.0 C

12.6 C

0 W/m

0.00 mm

04:50

12.9 C

1017.3 hpa

73 %

0.0 km/h aus 115

0.0 km/h aus ---

8.2 C

12.6 C

12.9 C

12.6 C

0 W/m

0.00 mm

04:55

12.7 C

1017.3 hpa

73 %

0.0 km/h aus 115

0.0 km/h aus ---

8.0 C

12.4 C

12.7 C

12.4 C

0 W/m

0.00 mm

05:00

12.6 C

1017.2 hpa

74 %

0.0 km/h aus 117

0.0 km/h aus ---

8.1 C

12.3 C

12.6 C

12.3 C

0 W/m

0.00 mm

05:05

12.4 C

1017.2 hpa

73 %

0.0 km/h aus 117

0.0 km/h aus ---

7.7 C

12.1 C

12.4 C

12.1 C

0 W/m

0.00 mm

05:10

12.3 C

1017.2 hpa

74 %

0.0 km/h aus 117

0.0 km/h aus ---

7.8 C

12.1 C

12.3 C

12.1 C

0 W/m

0.00 mm

05:15

12.2 C

1016.9 hpa

74 %

0.0 km/h aus 115

0.0 km/h aus ---

7.7 C

11.9 C

12.2 C

11.9 C

4 W/m

0.00 mm

05:20

12.1 C

1016.9 hpa

74 %

0.0 km/h aus 113

0.0 km/h aus ---

7.6 C

11.8 C

12.1 C

11.8 C

6 W/m

0.00 mm

05:25

12.0 C

1016.9 hpa

74 %

0.0 km/h aus 117

0.0 km/h aus ---

7.5 C

11.7 C

12.0 C

11.7 C

8 W/m

0.00 mm

05:30

11.9 C

1017.1 hpa

75 %

0.0 km/h aus 117

0.0 km/h aus ---

7.6 C

11.6 C

11.9 C

11.6 C

11 W/m

0.00 mm

05:35

11.8 C

1017.1 hpa

75 %

0.0 km/h aus 116

0.0 km/h aus ---

7.5 C

11.5 C

11.8 C

11.5 C

13 W/m

0.00 mm

05:40

11.7 C

1017.1 hpa

75 %

0.0 km/h aus 117

0.0 km/h aus ---

7.4 C

11.4 C

11.7 C

11.4 C

15 W/m

0.00 mm

05:45

11.7 C

1017.1 hpa

75 %

0.0 km/h aus 114

0.0 km/h aus ---

7.4 C

11.4 C

11.7 C

11.4 C

18 W/m

0.00 mm

05:50

11.6 C

1017.1 hpa

76 %

0.0 km/h aus 115

0.0 km/h aus ---

7.5 C

11.3 C

11.6 C

11.3 C

21 W/m

0.00 mm

05:55

11.5 C

1017.1 hpa

77 %

0.0 km/h aus 116

0.0 km/h aus ---

7.6 C

11.3 C

11.5 C

11.3 C

24 W/m

0.00 mm

06:00

11.5 C

1017.2 hpa

78 %

0.0 km/h aus 117

0.0 km/h aus ---

7.8 C

11.3 C

11.5 C

11.3 C

27 W/m

0.00 mm

06:05

11.6 C

1017.2 hpa

79 %

0.0 km/h aus 118

3.2 km/h aus NE

8.0 C

11.4 C

11.6 C

11.4 C

31 W/m

0.00 mm

06:10

11.6 C

1017.2 hpa

80 %

0.0 km/h aus 113

3.2 km/h aus NE

8.2 C

11.4 C

11.6 C

11.4 C

41 W/m

0.00 mm

06:15

11.6 C

1017.3 hpa

81 %

0.0 km/h aus 115

1.6 km/h aus NE

8.5 C

11.5 C

11.6 C

11.5 C

64 W/m

0.00 mm

06:20

11.7 C

1017.3 hpa

82 %

1.6 km/h aus 117

4.8 km/h aus NE

8.7 C

11.6 C

11.7 C

11.6 C

74 W/m

0.00 mm

06:25

11.8 C

1017.3 hpa

83 %

1.6 km/h aus 117

4.8 km/h aus NE

9.0 C

11.7 C

11.8 C

11.7 C

82 W/m

0.00 mm

06:30

12.0 C

1017.4 hpa

84 %

0.0 km/h aus 117

4.8 km/h aus NNE

9.4 C

11.9 C

12.0 C

11.9 C

91 W/m

0.00 mm

06:35

12.2 C

1017.4 hpa

84 %

1.6 km/h aus 116

4.8 km/h aus NNE

9.5 C

12.1 C

12.2 C

12.1 C

100 W/m

0.00 mm

06:40

12.4 C

1017.4 hpa

84 %

0.0 km/h aus 114

3.2 km/h aus NNE

9.8 C

12.3 C

12.4 C

12.3 C

113 W/m

0.00 mm

06:45

12.7 C

1017.5 hpa

84 %

0.0 km/h aus 116

1.6 km/h aus NNE

10.0 C

12.6 C

12.7 C

12.6 C

126 W/m

0.00 mm

06:50

12.9 C

1017.5 hpa

84 %

1.6 km/h aus 117

4.8 km/h aus NNE

10.3 C

12.9 C

12.9 C

12.9 C

140 W/m

0.00 mm

06:55

13.3 C

1017.5 hpa

83 %

3.2 km/h aus 116

6.4 km/h aus NNE

10.5 C

13.2 C

13.3 C

13.2 C

155 W/m

0.00 mm

07:00

13.6 C

1017.6 hpa

81 %

1.6 km/h aus 115

4.8 km/h aus N

10.4 C

13.4 C

13.6 C

13.4 C

172 W/m

0.00 mm

07:05

13.9 C

1017.6 hpa

80 %

3.2 km/h aus 115

8.0 km/h aus NNE

10.5 C

13.8 C

13.9 C

13.8 C

186 W/m

0.00 mm

07:10

14.3 C

1017.6 hpa

78 %

3.2 km/h aus 118

9.7 km/h aus NNE

10.5 C

14.1 C

14.3 C

14.1 C

200 W/m

0.00 mm

07:15

14.6 C

1017.7 hpa

78 %

1.6 km/h aus 117

6.4 km/h aus NNE

10.8 C

14.4 C

14.6 C

14.4 C

213 W/m

0.00 mm

07:20

14.8 C

1017.7 hpa

77 %

0.0 km/h aus 117

4.8 km/h aus NNE

10.8 C

14.6 C

14.8 C

14.6 C

227 W/m

0.00 mm

07:25

15.1 C

1017.7 hpa

76 %

1.6 km/h aus 114

4.8 km/h aus NNE

10.9 C

14.8 C

15.1 C

14.8 C

241 W/m

0.00 mm

07:30

15.4 C

1017.9 hpa

76 %

1.6 km/h aus 115

4.8 km/h aus ENE

11.2 C

15.2 C

15.4 C

15.2 C

255 W/m

0.00 mm

07:35

15.7 C

1017.9 hpa

74 %

1.6 km/h aus 117

4.8 km/h aus ENE

11.1 C

15.5 C

15.7 C

15.5 C

266 W/m

0.00 mm

07:40

16.0 C

1017.9 hpa

73 %

1.6 km/h aus 116

4.8 km/h aus ENE

11.2 C

15.8 C

16.0 C

15.8 C

279 W/m

0.00 mm

07:45

16.3 C

1017.9 hpa

73 %

0.0 km/h aus 116

3.2 km/h aus ENE

11.4 C

16.1 C

16.3 C

16.1 C

292 W/m

0.00 mm

07:50

16.6 C

1017.9 hpa

71 %

0.0 km/h aus 114

3.2 km/h aus ENE

11.3 C

16.3 C

16.6 C

16.3 C

305 W/m

0.00 mm

07:55

16.8 C

1017.9 hpa

70 %

0.0 km/h aus 116

4.8 km/h aus ENE

11.3 C

16.6 C

16.8 C

16.6 C

317 W/m

0.00 mm

08:00

17.1 C

1017.9 hpa

70 %

1.6 km/h aus 115

3.2 km/h aus ENE

11.6 C

16.9 C

17.1 C

16.9 C

330 W/m

0.00 mm

08:05

17.4 C

1017.9 hpa

69 %

0.0 km/h aus 117

1.6 km/h aus ENE

11.6 C

17.2 C

17.4 C

17.2 C

344 W/m

0.00 mm

08:10

17.6 C

1017.9 hpa

68 %

1.6 km/h aus 115

3.2 km/h aus ENE

11.6 C

17.4 C

17.6 C

17.4 C

357 W/m

0.00 mm

08:15

17.9 C

1018.0 hpa

67 %

1.6 km/h aus 116

3.2 km/h aus ENE

11.7 C

17.7 C

17.9 C

17.7 C

372 W/m

0.00 mm

08:20

18.2 C

1018.0 hpa

67 %

1.6 km/h aus 117

4.8 km/h aus N

11.9 C

18.1 C

18.2 C

18.1 C

383 W/m

0.00 mm

08:25

18.5 C

1018.0 hpa

66 %

3.2 km/h aus 117

6.4 km/h aus N

12.0 C

18.4 C

18.5 C

18.4 C

393 W/m

0.00 mm

08:30

18.8 C

1018.2 hpa

65 %

1.6 km/h aus 114

6.4 km/h aus NE

12.1 C

18.7 C

18.8 C

18.7 C

407 W/m

0.00 mm

08:35

19.1 C

1018.2 hpa

64 %

1.6 km/h aus 113

4.8 km/h aus NNW

12.1 C

18.9 C

19.1 C

18.9 C

412 W/m

0.00 mm

08:40

19.3 C

1018.2 hpa

64 %

1.6 km/h aus 116

4.8 km/h aus NE

12.3 C

19.3 C

19.3 C

19.3 C

427 W/m

0.00 mm

08:45

19.6 C

1018.3 hpa

64 %

0.0 km/h aus 117

4.8 km/h aus NNW

12.6 C

19.5 C

19.6 C

19.5 C

442 W/m

0.00 mm

08:50

19.7 C

1018.3 hpa

63 %

3.2 km/h aus 117

6.4 km/h aus NNW

12.5 C

19.7 C

19.7 C

19.7 C

452 W/m

0.00 mm

08:55

19.8 C

1018.3 hpa

63 %

3.2 km/h aus 114

6.4 km/h aus N

12.6 C

19.8 C

19.8 C

19.8 C

462 W/m

0.00 mm

09:00

19.9 C

1018.2 hpa

63 %

4.8 km/h aus 116

8.0 km/h aus N

12.7 C

19.9 C

19.9 C

19.9 C

471 W/m

0.00 mm

09:05

19.7 C

1018.2 hpa

64 %

0.0 km/h aus 115

4.8 km/h aus N

12.7 C

19.7 C

19.7 C

19.7 C

486 W/m

0.00 mm

09:10

19.8 C

1018.2 hpa

64 %

1.6 km/h aus 117

3.2 km/h aus NNE

12.8 C

19.8 C

19.8 C

19.8 C

494 W/m

0.00 mm

09:15

19.9 C

1018.4 hpa

64 %

1.6 km/h aus 117

4.8 km/h aus NNW

12.9 C

20.0 C

19.9 C

20.0 C

506 W/m

0.00 mm

09:20

19.7 C

1018.4 hpa

65 %

0.0 km/h aus 115

3.2 km/h aus NW

13.0 C

19.8 C

19.7 C

19.8 C

512 W/m

0.00 mm

09:25

20.0 C

1018.4 hpa

63 %

0.0 km/h aus 117

3.2 km/h aus NW

12.7 C

20.0 C

20.0 C

20.0 C

521 W/m

0.00 mm

09:30

19.8 C

1018.3 hpa

65 %

0.0 km/h aus 116

1.6 km/h aus NW

13.1 C

19.9 C

19.8 C

19.9 C

526 W/m

0.00 mm

09:35

20.4 C

1018.3 hpa

64 %

0.0 km/h aus 116

3.2 km/h aus NW

13.4 C

20.4 C

20.4 C

20.4 C

533 W/m

0.00 mm

09:40

20.9 C

1018.3 hpa

63 %

1.6 km/h aus 114

4.8 km/h aus NNW

13.6 C

20.7 C

20.9 C

20.7 C

537 W/m

0.00 mm

09:45

20.9 C

1018.2 hpa

64 %

1.6 km/h aus 116

4.8 km/h aus W

13.9 C

20.8 C

20.9 C

20.8 C

545 W/m

0.00 mm

09:50

21.1 C

1018.2 hpa

62 %

1.6 km/h aus 117

4.8 km/h aus NW

13.5 C

20.7 C

21.1 C

20.7 C

554 W/m

0.00 mm

09:55

21.3 C

1018.2 hpa

61 %

1.6 km/h aus 117

4.8 km/h aus NW

13.5 C

21.0 C

21.3 C

21.0 C

558 W/m

0.00 mm

10:00

21.7 C

1018.2 hpa

61 %

1.6 km/h aus 116

4.8 km/h aus NW

13.9 C

21.5 C

21.7 C

21.5 C

562 W/m

0.00 mm

10:05

22.0 C

1018.2 hpa

60 %

1.6 km/h aus 114

4.8 km/h aus WNW

13.9 C

21.8 C

22.0 C

21.8 C

565 W/m

0.00 mm

10:10

21.8 C

1018.2 hpa

62 %

1.6 km/h aus 117

4.8 km/h aus WNW

14.2 C

21.6 C

21.8 C

21.6 C

570 W/m

0.00 mm

10:15

22.4 C

1018.1 hpa

60 %

1.6 km/h aus 116

6.4 km/h aus NNE

14.2 C

22.4 C

22.4 C

22.4 C

569 W/m

0.00 mm

10:20

22.3 C

1018.1 hpa

62 %

0.0 km/h aus 117

3.2 km/h aus NE

14.6 C

22.3 C

22.3 C

22.3 C

574 W/m

0.00 mm

10:25

23.0 C

1018.1 hpa

59 %

1.6 km/h aus 114

4.8 km/h aus NNE

14.6 C

23.2 C

23.0 C

23.2 C

579 W/m

0.00 mm

10:30

23.3 C

1018.1 hpa

62 %

3.2 km/h aus 117

8.0 km/h aus NE

15.6 C

23.8 C

23.3 C

23.8 C

579 W/m

0.00 mm

10:35

23.4 C

1018.1 hpa

57 %

4.8 km/h aus 117

9.7 km/h aus NNW

14.4 C

23.6 C

23.4 C

23.6 C

582 W/m

0.00 mm

10:40

23.4 C

1018.1 hpa

58 %

3.2 km/h aus 116

6.4 km/h aus NNW

14.7 C

23.7 C

23.4 C

23.7 C

591 W/m

0.00 mm

10:45

23.3 C

1018.1 hpa

59 %

3.2 km/h aus 114

8.0 km/h aus NE

14.8 C

23.6 C

23.3 C

23.6 C

590 W/m

0.00 mm

10:50

23.7 C

1018.1 hpa

58 %

3.2 km/h aus 116

8.0 km/h aus N

14.9 C

24.0 C

23.7 C

24.0 C

591 W/m

0.00 mm

10:55

24.2 C

1018.1 hpa

56 %

4.8 km/h aus 117

12.9 km/h aus N

14.9 C

24.5 C

24.2 C

24.5 C

595 W/m

0.00 mm

11:00

24.6 C

1018.2 hpa

52 %

6.4 km/h aus 117

11.3 km/h aus N

14.1 C

24.7 C

24.6 C

24.7 C

600 W/m

0.00 mm

11:05

24.6 C

1018.2 hpa

54 %

4.8 km/h aus 116

9.7 km/h aus NE

14.6 C

24.7 C

24.6 C

24.7 C

605 W/m

0.00 mm

11:10

24.4 C

1018.2 hpa

53 %

4.8 km/h aus 115

14.5 km/h aus N

14.2 C

24.6 C

24.4 C

24.6 C

605 W/m

0.00 mm

11:15

24.5 C

1018.2 hpa

53 %

6.4 km/h aus 115

11.3 km/h aus ENE

14.3 C

24.6 C

24.5 C

24.6 C

608 W/m

0.00 mm

11:20

24.5 C

1018.2 hpa

54 %

6.4 km/h aus 117

12.9 km/h aus NE

14.6 C

24.6 C

24.5 C

24.6 C

612 W/m

0.00 mm

11:25

24.7 C

1018.2 hpa

53 %

6.4 km/h aus 118

14.5 km/h aus ENE

14.4 C

24.7 C

24.7 C

24.7 C

617 W/m

0.00 mm

11:30

25.1 C

1018.1 hpa

53 %

3.2 km/h aus 114

8.0 km/h aus N

14.8 C

25.1 C

25.1 C

25.1 C

617 W/m

0.00 mm

11:35

25.3 C

1018.1 hpa

54 %

4.8 km/h aus 114

14.5 km/h aus N

15.3 C

25.4 C

25.3 C

25.4 C

617 W/m

0.00 mm

11:40

25.6 C

1018.1 hpa

49 %

6.4 km/h aus 117

12.9 km/h aus NE

14.1 C

25.5 C

25.6 C

25.5 C

616 W/m

0.00 mm

11:45

25.7 C

1018.3 hpa

50 %

6.4 km/h aus 115

16.1 km/h aus N

14.5 C

25.7 C

25.7 C

25.7 C

620 W/m

0.00 mm

11:50

25.8 C

1018.3 hpa

48 %

8.0 km/h aus 115

19.3 km/h aus N

13.9 C

25.7 C

25.8 C

25.7 C

620 W/m

0.00 mm

11:55

25.6 C

1018.3 hpa

49 %

8.0 km/h aus 115

17.7 km/h aus N

14.1 C

25.5 C

25.6 C

25.5 C

620 W/m

0.00 mm

12:00

26.1 C

1018.2 hpa

48 %

6.4 km/h aus 116

16.1 km/h aus NNE

14.2 C

26.1 C

26.1 C

26.1 C

622 W/m

0.00 mm

12:05

25.8 C

1018.2 hpa

48 %

6.4 km/h aus 117

11.3 km/h aus ENE

13.9 C

25.7 C

25.8 C

25.7 C

622 W/m

0.00 mm

12:10

26.0 C

1018.2 hpa

48 %

8.0 km/h aus 117

17.7 km/h aus NE

14.1 C

26.0 C

26.0 C

26.0 C

627 W/m

0.00 mm

12:15

26.1 C

1018.2 hpa

45 %

8.0 km/h aus 113

17.7 km/h aus E

13.2 C

25.9 C

26.1 C

25.9 C

624 W/m

0.00 mm

12:20

26.3 C

1018.2 hpa

47 %

6.4 km/h aus 116

14.5 km/h aus NE

14.1 C

26.2 C

26.3 C

26.2 C

627 W/m

0.00 mm

12:25

26.4 C

1018.2 hpa

44 %

11.3 km/h aus 118

20.9 km/h aus NNE

13.2 C

26.1 C

26.4 C

26.1 C

627 W/m

0.00 mm

12:30

26.6 C

1018.0 hpa

44 %

6.4 km/h aus 116

19.3 km/h aus N

13.3 C

26.3 C

26.6 C

26.3 C

628 W/m

0.00 mm

12:35

26.8 C

1018.0 hpa

43 %

9.7 km/h aus 116

19.3 km/h aus NE

13.2 C

26.5 C

26.8 C

26.5 C

631 W/m

0.00 mm

12:40

26.8 C

1018.0 hpa

45 %

6.4 km/h aus 115

14.5 km/h aus ENE

13.9 C

26.6 C

26.8 C

26.6 C

633 W/m

0.00 mm

12:45

26.8 C

1018.0 hpa

45 %

11.3 km/h aus 117

19.3 km/h aus NE

13.9 C

26.6 C

26.8 C

26.6 C

628 W/m

0.00 mm

12:50

27.1 C

1018.0 hpa

44 %

9.7 km/h aus 116

20.9 km/h aus NNE

13.8 C

26.8 C

27.1 C

26.8 C

630 W/m

0.00 mm

12:55

27.1 C

1018.0 hpa

44 %

9.7 km/h aus 117

19.3 km/h aus N

13.8 C

26.8 C

27.1 C

26.8 C

630 W/m

0.00 mm

13:00

27.2 C

1018.0 hpa

43 %

9.7 km/h aus 113

20.9 km/h aus N

13.5 C

26.8 C

27.2 C

26.8 C

632 W/m

0.00 mm

13:05

27.6 C

1018.0 hpa

42 %

8.0 km/h aus 115

19.3 km/h aus NE

13.5 C

27.3 C

27.6 C

27.3 C

634 W/m

0.00 mm

13:10

27.5 C

1018.0 hpa

41 %

11.3 km/h aus 116

25.7 km/h aus NNE

13.1 C

27.1 C

27.5 C

27.1 C

633 W/m

0.00 mm

13:15

27.1 C

1018.0 hpa

41 %

11.3 km/h aus 114

22.5 km/h aus NE

12.7 C

26.6 C

27.1 C

26.6 C

635 W/m

0.00 mm

13:20

27.7 C

1018.0 hpa

41 %

6.4 km/h aus 115

16.1 km/h aus NNE

13.3 C

27.4 C

27.7 C

27.4 C

635 W/m

0.00 mm

13:25

27.5 C

1018.0 hpa

42 %

11.3 km/h aus 115

22.5 km/h aus NE

13.4 C

27.2 C

27.5 C

27.2 C

633 W/m

0.00 mm

13:30

27.7 C

1017.9 hpa

41 %

6.4 km/h aus 117

19.3 km/h aus NNE

13.3 C

27.4 C

27.7 C

27.4 C

629 W/m

0.00 mm

13:35

27.4 C

1017.9 hpa

40 %

11.3 km/h aus 116

20.9 km/h aus NE

12.6 C

26.9 C

27.4 C

26.9 C

632 W/m

0.00 mm

13:40

27.3 C

1017.9 hpa

41 %

12.9 km/h aus 117

24.1 km/h aus NNE

12.9 C

26.6 C

27.1 C

26.8 C

626 W/m

0.00 mm

13:45

27.1 C

1017.9 hpa

40 %

9.7 km/h aus 112

20.9 km/h aus NE

12.3 C

26.5 C

27.1 C

26.5 C

563 W/m

0.00 mm

13:50

27.4 C

1017.9 hpa

41 %

11.3 km/h aus 115

20.9 km/h aus NNE

13.0 C

27.0 C

27.4 C

27.0 C

631 W/m

0.00 mm

13:55

27.3 C

1017.9 hpa

39 %

11.3 km/h aus 117

22.5 km/h aus ESE

12.1 C

26.7 C

27.3 C

26.7 C

631 W/m

0.00 mm

14:00

27.3 C

1017.9 hpa

39 %

9.7 km/h aus 117

19.3 km/h aus E

12.2 C

26.8 C

27.3 C

26.8 C

637 W/m

0.00 mm

14:05

27.6 C

1017.9 hpa

41 %

11.3 km/h aus 116

20.9 km/h aus E

13.2 C

27.2 C

27.6 C

27.2 C

643 W/m

0.00 mm

14:10

27.6 C

1017.9 hpa

39 %

11.3 km/h aus 115

22.5 km/h aus NE

12.4 C

27.1 C

27.6 C

27.1 C

640 W/m

0.00 mm

14:15

27.7 C

1017.9 hpa

37 %

9.7 km/h aus 116

17.7 km/h aus E

11.7 C

27.1 C

27.7 C

27.1 C

631 W/m

0.00 mm

14:20

27.8 C

1017.9 hpa

39 %

9.7 km/h aus 117

17.7 km/h aus NNE

12.6 C

27.3 C

27.8 C

27.3 C

632 W/m

0.00 mm

14:25

27.8 C

1017.9 hpa

38 %

11.3 km/h aus 117

20.9 km/h aus NE

12.2 C

27.3 C

27.8 C

27.3 C

625 W/m

0.00 mm

14:30

27.9 C

1017.8 hpa

39 %

8.0 km/h aus 114

17.7 km/h aus N

12.7 C

27.4 C

27.9 C

27.4 C

626 W/m

0.00 mm

14:35

28.1 C

1017.8 hpa

38 %

11.3 km/h aus 114

20.9 km/h aus NE

12.4 C

27.6 C

28.1 C

27.6 C

627 W/m

0.00 mm

14:40

27.7 C

1017.8 hpa

39 %

6.4 km/h aus 117

17.7 km/h aus NNE

12.5 C

27.3 C

27.7 C

27.3 C

628 W/m

0.00 mm

14:45

28.2 C

1017.7 hpa

37 %

6.4 km/h aus 117

19.3 km/h aus ENE

12.1 C

27.7 C

28.2 C

27.7 C

624 W/m

0.00 mm

14:50

28.1 C

1017.7 hpa

37 %

11.3 km/h aus 115

19.3 km/h aus NNE

12.0 C

27.6 C

28.1 C

27.6 C

621 W/m

0.00 mm

14:55

27.9 C

1017.7 hpa

37 %

8.0 km/h aus 114

19.3 km/h aus NNE

11.9 C

27.4 C

27.9 C

27.4 C

620 W/m

0.00 mm

15:00

27.7 C

1017.7 hpa

38 %

8.0 km/h aus 116

16.1 km/h aus E

12.1 C

27.1 C

27.7 C

27.1 C

618 W/m

0.00 mm

15:05

28.2 C

1017.7 hpa

39 %

4.8 km/h aus 117

14.5 km/h aus NE

13.0 C

27.9 C

28.2 C

27.9 C

620 W/m

0.00 mm

15:10

27.9 C

1017.7 hpa

36 %

12.9 km/h aus 114

22.5 km/h aus NE

11.5 C

27.2 C

27.8 C

27.3 C

621 W/m

0.00 mm

15:15

27.8 C

1017.6 hpa

37 %

6.4 km/h aus 114

14.5 km/h aus NNE

11.8 C

27.3 C

27.8 C

27.3 C

617 W/m

0.00 mm

15:20

27.9 C

1017.6 hpa

37 %

12.9 km/h aus 117

22.5 km/h aus N

11.9 C

27.2 C

27.8 C

27.4 C

614 W/m

0.00 mm

15:25

27.9 C

1017.6 hpa

35 %

9.7 km/h aus 116

17.7 km/h aus E

11.1 C

27.2 C

27.9 C

27.2 C

607 W/m

0.00 mm

15:30

27.9 C

1017.5 hpa

36 %

6.4 km/h aus 115

16.1 km/h aus E

11.4 C

27.3 C

27.9 C

27.3 C

605 W/m

0.00 mm

15:35

28.1 C

1017.5 hpa

35 %

3.2 km/h aus 114

8.0 km/h aus N

11.2 C

27.4 C

28.1 C

27.4 C

611 W/m

0.00 mm

15:40

28.5 C

1017.5 hpa

34 %

9.7 km/h aus 117

16.1 km/h aus N

11.1 C

27.8 C

28.5 C

27.8 C

603 W/m

0.00 mm

15:45

28.1 C

1017.4 hpa

33 %

6.4 km/h aus 117

14.5 km/h aus NE

10.3 C

27.2 C

28.1 C

27.2 C

595 W/m

0.00 mm

15:50

28.1 C

1017.4 hpa

33 %

4.8 km/h aus 117

8.0 km/h aus NNE

10.3 C

27.2 C

28.1 C

27.2 C

597 W/m

0.00 mm

15:55

28.1 C

1017.4 hpa

33 %

6.4 km/h aus 114

14.5 km/h aus NNW

10.3 C

27.2 C

28.1 C

27.2 C

597 W/m

0.00 mm

16:00

28.2 C

1017.5 hpa

34 %

8.0 km/h aus 115

19.3 km/h aus N

10.9 C

27.4 C

28.2 C

27.4 C

591 W/m

0.00 mm

16:05

28.1 C

1017.5 hpa

33 %

3.2 km/h aus 115

8.0 km/h aus NNE

10.3 C

27.2 C

28.1 C

27.2 C

588 W/m

0.00 mm

16:10

28.3 C

1017.5 hpa

32 %

8.0 km/h aus 117

19.3 km/h aus N

10.1 C

27.4 C

28.3 C

27.4 C

579 W/m

0.00 mm

16:15

28.4 C

1017.4 hpa

32 %

4.8 km/h aus 116

9.7 km/h aus NNE

10.2 C

27.6 C

28.4 C

27.6 C

574 W/m

0.00 mm

16:20

28.0 C

1017.4 hpa

32 %

6.4 km/h aus 115

11.3 km/h aus NNE

9.8 C

27.1 C

28.0 C

27.1 C

563 W/m

0.00 mm

16:25

28.2 C

1017.4 hpa

31 %

6.4 km/h aus 117

11.3 km/h aus ENE

9.5 C

27.2 C

28.2 C

27.2 C

571 W/m

0.00 mm

16:30

27.8 C

1017.3 hpa

29 %

3.2 km/h aus 117

9.7 km/h aus E

8.2 C

26.7 C

27.8 C

26.7 C

567 W/m

0.00 mm

16:35

28.2 C

1017.3 hpa

32 %

3.2 km/h aus 116

11.3 km/h aus NNE

10.0 C

27.3 C

28.2 C

27.3 C

565 W/m

0.00 mm

16:40

28.4 C

1017.3 hpa

30 %

6.4 km/h aus 115

16.1 km/h aus N

9.2 C

27.4 C

28.4 C

27.4 C

559 W/m

0.00 mm

16:45

28.4 C

1017.3 hpa

33 %

6.4 km/h aus 117

12.9 km/h aus NNE

10.6 C

27.7 C

28.4 C

27.7 C

553 W/m

0.00 mm

16:50

28.3 C

1017.3 hpa

34 %

6.4 km/h aus 116

17.7 km/h aus NNE

10.9 C

27.5 C

28.3 C

27.5 C

549 W/m

0.00 mm

16:55

27.9 C

1017.3 hpa

33 %

3.2 km/h aus 117

8.0 km/h aus NE

10.1 C

27.1 C

27.9 C

27.1 C

539 W/m

0.00 mm

17:00

28.1 C

1017.2 hpa

35 %

4.8 km/h aus 115

11.3 km/h aus NNW

11.2 C

27.4 C

28.1 C

27.4 C

529 W/m

0.00 mm

17:05

28.1 C

1017.2 hpa

33 %

8.0 km/h aus 115

16.1 km/h aus ENE

10.3 C

27.2 C

28.1 C

27.2 C

521 W/m

0.00 mm

17:10

27.7 C

1017.2 hpa

32 %

3.2 km/h aus 116

9.7 km/h aus ENE

9.5 C

26.7 C

27.7 C

26.7 C

513 W/m

0.00 mm

17:15

27.8 C

1017.1 hpa

34 %

4.8 km/h aus 116

16.1 km/h aus NE

10.5 C

27.0 C

27.8 C

27.0 C

509 W/m

0.00 mm

17:20

28.1 C

1017.1 hpa

33 %

3.2 km/h aus 117

8.0 km/h aus N

10.3 C

27.3 C

28.1 C

27.3 C

502 W/m

0.00 mm

17:25

28.1 C

1017.1 hpa

30 %

6.4 km/h aus 114

14.5 km/h aus ENE

8.9 C

27.0 C

28.1 C

27.0 C

490 W/m

0.00 mm

17:30

27.8 C

1017.1 hpa

32 %

4.8 km/h aus 117

9.7 km/h aus NNW

9.6 C

26.9 C

27.8 C

26.9 C

478 W/m

0.00 mm

17:35

27.9 C

1017.1 hpa

34 %

6.4 km/h aus 117

17.7 km/h aus N

10.6 C

27.1 C

27.9 C

27.1 C

469 W/m

0.00 mm

17:40

27.8 C

1017.1 hpa

33 %

4.8 km/h aus 117

9.7 km/h aus N

10.1 C

27.0 C

27.8 C

27.0 C

461 W/m

0.00 mm

17:45

27.9 C

1017.1 hpa

33 %

4.8 km/h aus 115

12.9 km/h aus ENE

10.1 C

27.1 C

27.9 C

27.1 C

457 W/m

0.00 mm

17:50

27.8 C

1017.1 hpa

31 %

6.4 km/h aus 116

16.1 km/h aus NE

9.1 C

26.8 C

27.8 C

26.8 C

446 W/m

0.00 mm

17:55

27.8 C

1017.1 hpa

32 %

4.8 km/h aus 116

9.7 km/h aus NE

9.6 C

26.9 C

27.8 C

26.9 C

432 W/m

0.00 mm

18:00

27.7 C

1016.9 hpa

35 %

6.4 km/h aus 116

11.3 km/h aus NE

10.8 C

26.9 C

27.7 C

26.9 C

418 W/m

0.00 mm

18:05

27.7 C

1016.9 hpa

33 %

8.0 km/h aus 116

17.7 km/h aus ENE

9.9 C

26.8 C

27.7 C

26.8 C

404 W/m

0.00 mm

18:10

27.4 C

1016.9 hpa

35 %

8.0 km/h aus 115

16.1 km/h aus NE

10.6 C

26.7 C

27.4 C

26.7 C

395 W/m

0.00 mm

18:15

27.6 C

1016.9 hpa

36 %

3.2 km/h aus 116

9.7 km/h aus N

11.1 C

26.8 C

27.6 C

26.8 C

383 W/m

0.00 mm

18:20

27.6 C

1016.9 hpa

35 %

6.4 km/h aus 116

14.5 km/h aus NNW

10.7 C

26.8 C

27.6 C

26.8 C

369 W/m

0.00 mm

18:25

27.4 C

1016.9 hpa

36 %

4.8 km/h aus 116

9.7 km/h aus N

11.0 C

26.7 C

27.4 C

26.7 C

357 W/m

0.00 mm

18:30

27.3 C

1016.9 hpa

35 %

8.0 km/h aus 114

19.3 km/h aus NNE

10.5 C

26.5 C

27.3 C

26.5 C

343 W/m

0.00 mm

18:35

27.3 C

1016.9 hpa

35 %

4.8 km/h aus 116

16.1 km/h aus N

10.5 C

26.5 C

27.3 C

26.5 C

332 W/m

0.00 mm

18:40

27.3 C

1016.9 hpa

36 %

3.2 km/h aus 117

9.7 km/h aus NNE

10.9 C

26.5 C

27.3 C

26.5 C

318 W/m

0.00 mm

18:45

27.1 C

1016.9 hpa

36 %

4.8 km/h aus 117

11.3 km/h aus NNE

10.8 C

26.3 C

27.1 C

26.3 C

306 W/m

0.00 mm

18:50

27.1 C

1016.9 hpa

36 %

4.8 km/h aus 115

9.7 km/h aus ENE

10.7 C

26.3 C

27.1 C

26.3 C

291 W/m

0.00 mm

18:55

26.9 C

1016.9 hpa

37 %

4.8 km/h aus 116

12.9 km/h aus NE

11.0 C

26.2 C

26.9 C

26.2 C

271 W/m

0.00 mm

19:00

26.8 C

1016.9 hpa

38 %

4.8 km/h aus 117

11.3 km/h aus NNE

11.3 C

26.1 C

26.8 C

26.1 C

58 W/m

0.00 mm

19:05

26.7 C

1016.9 hpa

37 %

4.8 km/h aus 117

9.7 km/h aus N

10.8 C

25.9 C

26.7 C

25.9 C

56 W/m

0.00 mm

19:10

26.6 C

1016.9 hpa

38 %

4.8 km/h aus 115

8.0 km/h aus NE

11.1 C

25.9 C

26.6 C

25.9 C

55 W/m

0.00 mm

19:15

26.4 C

1016.9 hpa

38 %

4.8 km/h aus 115

11.3 km/h aus NE

11.0 C

25.8 C

26.4 C

25.8 C

54 W/m

0.00 mm

19:20

26.4 C

1016.9 hpa

38 %

4.8 km/h aus 117

9.7 km/h aus NNE

10.9 C

25.8 C

26.4 C

25.8 C

54 W/m

0.00 mm

19:25

26.3 C

1016.9 hpa

38 %

4.8 km/h aus 116

8.0 km/h aus NNE

10.9 C

25.7 C

26.3 C

25.7 C

53 W/m

0.00 mm

19:30

26.2 C

1017.0 hpa

39 %

4.8 km/h aus 115

9.7 km/h aus NNE

11.2 C

25.7 C

26.2 C

25.7 C

51 W/m

0.00 mm

19:35

26.2 C

1017.0 hpa

39 %

4.8 km/h aus 114

6.4 km/h aus ENE

11.1 C

25.7 C

26.2 C

25.7 C

50 W/m

0.00 mm

19:40

26.2 C

1017.0 hpa

39 %

4.8 km/h aus 116

8.0 km/h aus NE

11.1 C

25.7 C

26.2 C

25.7 C

49 W/m

0.00 mm

19:45

26.2 C

1017.0 hpa

40 %

3.2 km/h aus 117

8.0 km/h aus NE

11.5 C

25.7 C

26.2 C

25.7 C

47 W/m

0.00 mm

19:50

26.2 C

1017.0 hpa

39 %

3.2 km/h aus 117

6.4 km/h aus NE

11.1 C

25.7 C

26.2 C

25.7 C

47 W/m

0.00 mm

19:55

26.1 C

1017.0 hpa

40 %

1.6 km/h aus 114

6.4 km/h aus NE

11.5 C

25.7 C

26.1 C

25.7 C

45 W/m

0.00 mm

20:00

26.1 C

1016.9 hpa

40 %

3.2 km/h aus 117

4.8 km/h aus NE

11.4 C

25.6 C

26.1 C

25.6 C

43 W/m

0.00 mm

20:05

26.0 C

1016.9 hpa

40 %

3.2 km/h aus 117

9.7 km/h aus NE

11.4 C

25.6 C

26.0 C

25.6 C

41 W/m

0.00 mm

20:10

25.9 C

1016.9 hpa

41 %

3.2 km/h aus 117

8.0 km/h aus NE

11.7 C

25.6 C

25.9 C

25.6 C

40 W/m

0.00 mm

20:15

25.8 C

1016.9 hpa

41 %

1.6 km/h aus 115

6.4 km/h aus NE

11.6 C

25.4 C

25.8 C

25.4 C

37 W/m

0.00 mm

20:20

25.8 C

1016.9 hpa

42 %

1.6 km/h aus 116

4.8 km/h aus N

11.9 C

25.4 C

25.8 C

25.4 C

35 W/m

0.00 mm

20:25

25.7 C

1016.9 hpa

42 %

0.0 km/h aus 117

4.8 km/h aus NNE

11.8 C

25.3 C

25.7 C

25.3 C

33 W/m

0.00 mm

20:30

25.6 C

1016.9 hpa

43 %

0.0 km/h aus 117

3.2 km/h aus NNE

12.0 C

25.2 C

25.6 C

25.2 C

29 W/m

0.00 mm

20:35

25.4 C

1016.9 hpa

43 %

1.6 km/h aus 114

4.8 km/h aus NNE

11.9 C

25.1 C

25.4 C

25.1 C

26 W/m

0.00 mm

20:40

25.3 C

1016.9 hpa

44 %

0.0 km/h aus 115

3.2 km/h aus NNE

12.1 C

25.0 C

25.3 C

25.0 C

25 W/m

0.00 mm

20:45

25.1 C

1016.9 hpa

44 %

0.0 km/h aus 117

4.8 km/h aus NNE

12.0 C

24.8 C

25.1 C

24.8 C

22 W/m

0.00 mm

20:50

25.0 C

1016.9 hpa

45 %

0.0 km/h aus 117

4.8 km/h aus NNE

12.2 C

24.7 C

25.0 C

24.7 C

20 W/m

0.00 mm

20:55

24.8 C

1016.9 hpa

46 %

0.0 km/h aus 116

3.2 km/h aus NNE

12.4 C

24.6 C

24.8 C

24.6 C

19 W/m

0.00 mm

21:00

24.7 C

1017.0 hpa

47 %

1.6 km/h aus 113

3.2 km/h aus NNE

12.6 C

24.5 C

24.7 C

24.5 C

17 W/m

0.00 mm

21:05

24.5 C

1017.0 hpa

47 %

0.0 km/h aus 117

4.8 km/h aus NNE

12.4 C

24.3 C

24.5 C

24.3 C

14 W/m

0.00 mm

21:10

24.3 C

1017.0 hpa

47 %

0.0 km/h aus 116

3.2 km/h aus NNE

12.2 C

24.2 C

24.3 C

24.2 C

12 W/m

0.00 mm

21:15

24.0 C

1017.2 hpa

48 %

0.0 km/h aus 116

4.8 km/h aus NNE

12.3 C

23.9 C

24.0 C

23.9 C

10 W/m

0.00 mm

21:20

23.8 C

1017.2 hpa

48 %

0.0 km/h aus 114

3.2 km/h aus NNE

12.1 C

23.7 C

23.8 C

23.7 C

7 W/m

0.00 mm

21:25

23.5 C

1017.2 hpa

49 %

0.0 km/h aus 116

3.2 km/h aus NNE

12.2 C

23.4 C

23.5 C

23.4 C

5 W/m

0.00 mm

21:30

23.2 C

1017.3 hpa

50 %

0.0 km/h aus 115

3.2 km/h aus NNE

12.2 C

23.1 C

23.2 C

23.1 C

2 W/m

0.00 mm

21:35

22.9 C

1017.3 hpa

51 %

0.0 km/h aus 116

1.6 km/h aus NNE

12.3 C

22.8 C

22.9 C

22.8 C

0 W/m

0.00 mm

21:40

22.7 C

1017.3 hpa

52 %

0.0 km/h aus 115

3.2 km/h aus NNE

12.3 C

22.4 C

22.7 C

22.4 C

0 W/m

0.00 mm

21:45

22.4 C

1017.3 hpa

52 %

1.6 km/h aus 115

4.8 km/h aus NNE

12.1 C

22.1 C

22.4 C

22.1 C

0 W/m

0.00 mm

21:50

22.3 C

1017.3 hpa

52 %

1.6 km/h aus 117

6.4 km/h aus NNE

11.9 C

21.9 C

22.3 C

21.9 C

0 W/m

0.00 mm

21:55

22.1 C

1017.3 hpa

52 %

3.2 km/h aus 117

4.8 km/h aus N

11.7 C

21.6 C

22.1 C

21.6 C

0 W/m

0.00 mm

22:00

21.8 C

1017.5 hpa

52 %

4.8 km/h aus 116

11.3 km/h aus N

11.5 C

21.2 C

21.8 C

21.2 C

0 W/m

0.00 mm

22:05

21.6 C

1017.5 hpa

52 %

4.8 km/h aus 114

14.5 km/h aus NNE

11.3 C

20.9 C

21.6 C

20.9 C

0 W/m

0.00 mm

22:10

21.4 C

1017.5 hpa

53 %

6.4 km/h aus 116

17.7 km/h aus NE

11.5 C

20.7 C

21.4 C

20.7 C

0 W/m

0.00 mm

22:15

21.4 C

1017.9 hpa

53 %

4.8 km/h aus 117

11.3 km/h aus NNE

11.4 C

20.7 C

21.4 C

20.7 C

0 W/m

0.00 mm

22:20

21.4 C

1017.9 hpa

53 %

8.0 km/h aus 116

19.3 km/h aus NE

11.4 C

20.7 C

21.4 C

20.7 C

0 W/m

0.00 mm

22:25

21.3 C

1017.9 hpa

54 %

4.8 km/h aus 114

9.7 km/h aus N

11.6 C

20.6 C

21.3 C

20.6 C

0 W/m

0.00 mm

22:30

21.3 C

1017.9 hpa

54 %

4.8 km/h aus 115

9.7 km/h aus NNE

11.6 C

20.6 C

21.3 C

20.6 C

0 W/m

0.00 mm

22:35

21.2 C

1017.9 hpa

54 %

4.8 km/h aus 117

17.7 km/h aus NE

11.5 C

20.5 C

21.2 C

20.5 C

0 W/m

0.00 mm

22:40

21.2 C

1017.9 hpa

54 %

8.0 km/h aus 117

17.7 km/h aus ENE

11.5 C

20.4 C

21.2 C

20.4 C

0 W/m

0.00 mm

22:45

21.1 C

1017.9 hpa

54 %

6.4 km/h aus 114

14.5 km/h aus NE

11.4 C

20.3 C

21.1 C

20.3 C

0 W/m

0.00 mm

22:50

21.1 C

1017.9 hpa

54 %

8.0 km/h aus 114

19.3 km/h aus NE

11.4 C

20.3 C

21.1 C

20.3 C

0 W/m

0.00 mm

22:55

21.1 C

1017.9 hpa

55 %

8.0 km/h aus 117

19.3 km/h aus NE

11.7 C

20.3 C

21.1 C

20.3 C

0 W/m

0.00 mm

23:00

21.0 C

1018.0 hpa

54 %

9.7 km/h aus 117

20.9 km/h aus NE

11.3 C

20.3 C

21.0 C

20.3 C

0 W/m

0.00 mm

23:05

20.9 C

1018.0 hpa

55 %

6.4 km/h aus 115

14.5 km/h aus NE

11.5 C

20.2 C

20.9 C

20.2 C

0 W/m

0.00 mm

23:10

20.8 C

1018.0 hpa

55 %

6.4 km/h aus 114

9.7 km/h aus NNE

11.5 C

20.2 C

20.8 C

20.2 C

0 W/m

0.00 mm

23:15

20.7 C

1018.2 hpa

55 %

4.8 km/h aus 117

11.3 km/h aus NNE

11.4 C

20.1 C

20.7 C

20.1 C

0 W/m

0.00 mm

23:20

20.7 C

1018.2 hpa

55 %

1.6 km/h aus 116

6.4 km/h aus NE

11.3 C

20.1 C

20.7 C

20.1 C

0 W/m

0.00 mm

23:25

20.6 C

1018.2 hpa

55 %

1.6 km/h aus 117

6.4 km/h aus NNE

11.2 C

20.0 C

20.6 C

20.0 C

0 W/m

0.00 mm

23:30

20.4 C

1018.4 hpa

56 %

3.2 km/h aus 115

8.0 km/h aus N

11.4 C

19.9 C

20.4 C

19.9 C

0 W/m

0.00 mm

23:35

20.3 C

1018.4 hpa

56 %

1.6 km/h aus 116

6.4 km/h aus ENE

11.3 C

19.9 C

20.3 C

19.9 C

0 W/m

0.00 mm

23:40

20.2 C

1018.4 hpa

57 %

1.6 km/h aus 116

6.4 km/h aus NE

11.4 C

19.8 C

20.2 C

19.8 C

0 W/m

0.00 mm

23:45

19.9 C

1018.4 hpa

57 %

4.8 km/h aus 117

9.7 km/h aus NE

11.2 C

19.6 C

19.9 C

19.6 C

0 W/m

0.00 mm

23:50

19.8 C

1018.4 hpa

57 %

4.8 km/h aus 116

12.9 km/h aus NE

11.0 C

19.4 C

19.8 C

19.4 C

0 W/m

0.00 mm

23:55

19.6 C

1018.4 hpa

58 %

3.2 km/h aus 114

9.7 km/h aus ENE

11.1 C

19.3 C

19.6 C

19.3 C

0 W/m

0.00 mm